Back to catalog

STARLINK-2096

AliveCommunicationsVLEO
NORAD 47376·PAYLOAD·🇺🇸 United States

Launched Jan 20, 2021 from Cape Canaveral Space Force Station

Loading…

Next Passes (next 24 hours)

TLE

FreshSource: CelesTrak SupGP

Epoch: Sep 14, 2026, 13:56 UTC

1 47376C 21005AD  26257.58104167 -.00003350  00000+0 -10777-3 0  2573
2 47376  53.1583 263.4766 0001269  87.9767  93.8806 15.31687736    12

Track STARLINK-2096 in real time with AllMySat

Download on the App Store